Miscellaneous Local Product
Issued by NWS Hastings, NE

Home | Current Version | Previous Version | Graphics & Text | Print | Product List | Glossary On
Versions: 1 2 3 4 5 6 7 8 9 10 11 12 13 14 15 16 17 18 19 20 21 22 23 24 25 26 27 28 29 30 31 32 33 34 35 36 37 38 39 40 41 42 43 44 45 46 47 48 49 50
000
AXUS43 KGID 231102
MISGRI

GID CWA HOURLY WEATHER ROUNDUP
NATIONAL WEATHER SERVICE HASTINGS NE
600 AM CDT WED APR 23 2014

NOTE: "FAIR" INDICATES FEW OR NO CLOUDS BELOW 12,000 FEET WITH NO
SIGNIFICANT WEATHER AND/OR OBSTRUCTIONS TO VISIBILITY.

...SOUTH CENTRAL NEBRASKA...

CITY           SKY/WX    TMP DP  RH WIND       PRES   REMARKS
GRAND ISLAND   CLOUDY    53  40  61 SE23G32   29.76F
HASTINGS       CLOUDY    54  38  54 SE18G29   29.76S
KEARNEY        CLOUDY    55  37  50 SE25G33   29.72S
ORD            MOCLDY    52  34  50 SE16G23   29.70F
YORK           CLOUDY    50  39  66 SE26G33   29.81F
AURORA         LGT RAIN  52  40  62 SE23      29.79F
LEXINGTON      CLOUDY    55  36  48 SE23G31   29.67F
HOLDREGE       MOCLDY    55  35  46 SE26G37   29.69F
HEBRON         LGT RAIN  52  42  68 SE12      29.84F

...NEBRASKA PANHANDLE...

CITY           SKY/WX    TMP DP  RH WIND       PRES   REMARKS
CHADRON        CLOUDY    58  47  66 S10       29.46R
ALLIANCE       CLOUDY    53  45  74 S15       29.50S
SCOTTSBLUFF    CLOUDY    54  44  69 E8        29.50S
SIDNEY         CLOUDY    52  43  71 S9        29.54F

...WESTERN AND NORTH CENTRAL NEBRASKA...

CITY           SKY/WX    TMP DP  RH WIND       PRES   REMARKS
VALENTINE      CLOUDY    55  33  43 SE13      29.58F
AINSWORTH      MOCLDY    54  33  44 S23G33    29.58F
ONEILL         PTCLDY    55  31  40 SE23G37   29.69F
BROKEN BOW     MOCLDY    55  35  47 SE17G25   29.67F
IMPERIAL       MOCLDY    60  43  53 S17       29.55F
NORTH PLATTE   CLOUDY    57  37  47 SE15      29.60F
MCCOOK         CLOUDY    57  43  59 SE8       29.62S

...EASTERN NEBRASKA...

CITY           SKY/WX    TMP DP  RH WIND       PRES   REMARKS
NORFOLK        LGT RAIN  52  37  56 SE30G39   29.78F
SO SIOUX CITY  CLOUDY    51  38  60 SE20      29.89F
TEKAMAH        MOCLDY    51  34  52 SE13      29.92F
COLUMBUS       CLOUDY    54  34  47 SE18G24   29.82F
ALBION         LGT RAIN  53  36  52 SE22G29   29.78S
OMAHA EPPLEY   PTCLDY    54  33  45 SE17      29.92F
OFFUTT AFB     PTCLDY    51  36  57 SE9       29.93S
MILLARD        PTCLDY    53  35  49 SE9       29.91F
LINCOLN        CLOUDY    57  35  43 SE15G25   29.89F
NEBRASKA CITY  CLOUDY    54  35  49 SE13      29.94S
BEATRICE       LGT RAIN  55  36  47 SE15G23   29.90R
FALLS CITY     MOCLDY    53  36  52 SE12      29.93S

...NORTHERN KANSAS...

CITY           SKY/WX    TMP DP  RH WIND       PRES   REMARKS
GOODLAND       CLOUDY    60  41  49 S24G31    29.61F
HILL CITY      CLOUDY    57  41  55 S12G22    29.70F
PHILLIPSBURG   CLEAR     55  36  47 SE17      29.74S
SMITH CENTER   CLEAR     52  37  58 SE18G26   29.77F
BELOIT         CLEAR     57  37  47 SE13G21   29.80S
HAYS           MOCLDY    55  37  50 S15       29.76R
RUSSELL        PTCLDY    57  35  43 SE23      29.75F
CONCORDIA      CLOUDY    55  40  56 SE14      29.84S
SALINA         CLOUDY    57  36  45 SE16      29.84F
TOPEKA         CLOUDY    57  38  48 SE8       29.96R



USA.gov is the U.S. government's official web portal to all federal, state and local government web resources and services.